Sioux City, IA

8:29 PM CDT on March 26, 2017 (GMT -0500)
Sioux Gateway

Weather History for KSUX - February, 2014

Change the Weather History Date:

Monday, February 24, 2014

  Actual Average Record
Temperature  
Mean Temperature 20 °F 28 °F  
Max Temperature 24 °F 38 °F 67 °F (1981)
Min Temperature 15 °F 18 °F -18 °F (1993)
Degree Days  
Heating Degree Days 45 37  
Month to date heating degree days 1073 973  
Since 1 July heating degree days 5388 5149  
Cooling Degree Days 0 0  
Month to date cooling degree days 0 0  
Year to date cooling degree days 0 0  
Moisture  
Dew Point 13 °F    
Average Humidity 70    
Maximum Humidity 91    
Minimum Humidity 49    
Precipitation  
Precipitation 0.09 in 0.03 in 1.03 in (2007)
Month to date precipitation 0.58 0.55  
Year to date precipitation 0.77 1.17  
Snow  
Snow 2.20 in 0.20 in 6.20 in (2007)
Month to date snowfall 8.3 5.7  
Since 1 July snowfall 13.6 25.6  
Snow Depth 0.00 in    
Sea Level Pressure  
Sea Level Pressure 30.33 in    
Wind  
Wind Speed 7 mph (East)    
Max Wind Speed 14 mph    
Max Gust Speed 16 mph    
Visibility 4 miles    
Events Snow    
T = Trace of Precipitation, MM = Missing Value Source: NWS Daily Summary

Daily Weather History Graph

Daily Weather History Graph

Search for Another Location

Airport or City:

Trip Planner

Search our weather history database for the weather conditions in past years. The results will help you decide how hot, cold, wet, or windy it might be!

Date:

Astronomy

Feb. 24, 2014 Rise Set
Actual Time 7:08 AM CST 6:09 PM CST
Civil Twilight 6:40 AM CST 6:37 PM CST
Nautical Twilight 6:07 AM CST 7:10 PM CST
Astronomical Twilight 5:35 AM CST 7:42 PM CST
Moon 3:12 AM CST (2/24) 1:07 PM CST (2/24)
Length of Visible Light 11h 57m
Length of Day
11h 00m
Waning Crescent, 28% of the Moon is Illuminated
Feb 24
Waning Crescent
Mar 1
New
Mar 8
First Quarter
Mar 16
Full
Mar 23
Last Quarter

Hourly Weather History & Observations

Time (CST) Temp. Windchill Dew Point Humidity Pressure Visibility Wind Dir Wind Speed Gust Speed Precip Events Conditions
12:52 AM 18.0 °F 9.8 °F 9.0 °F 68% 30.40 in 10.0 mi WNW 5.8 mph - N/A   Clear
1:52 AM 18.0 °F 8.7 °F 9.0 °F 68% 30.41 in 10.0 mi WNW 6.9 mph - N/A   Clear
2:52 AM 19.0 °F 10.0 °F 10.0 °F 68% 30.40 in 10.0 mi NNW 6.9 mph - N/A   Overcast
3:52 AM 19.9 °F 11.1 °F 7.0 °F 57% 30.38 in 10.0 mi North 6.9 mph - N/A   Overcast
4:52 AM 19.0 °F 13.9 °F 8.1 °F 62% 30.39 in 10.0 mi North 3.5 mph - N/A   Overcast
5:52 AM 18.0 °F 12.7 °F 7.0 °F 62% 30.41 in 10.0 mi East 3.5 mph - N/A   Overcast
6:52 AM 18.0 °F 11.1 °F 7.0 °F 62% 30.40 in 10.0 mi NNE 4.6 mph - N/A   Overcast
7:52 AM 18.0 °F 9.8 °F 3.9 °F 54% 30.41 in 10.0 mi NE 5.8 mph - N/A   Overcast
8:52 AM 19.0 °F 13.9 °F 3.0 °F 50% 30.42 in 10.0 mi ESE 3.5 mph - N/A   Overcast
9:52 AM 19.0 °F 13.9 °F 3.9 °F 52% 30.42 in 10.0 mi SE 3.5 mph - N/A   Overcast
10:52 AM 21.0 °F 13.4 °F 6.1 °F 53% 30.39 in 10.0 mi East 5.8 mph - N/A   Overcast
11:47 AM 21.2 °F - 8.6 °F 58% 30.31 in 4.0 mi North - - 0.00 in Snow Light Snow
11:52 AM 21.9 °F 13.4 °F 9.0 °F 58% 30.38 in 4.0 mi SSE 6.9 mph - 0.00 in Snow Light Snow
12:14 PM 21.9 °F 13.4 °F 10.0 °F 60% 30.32 in 4.0 mi SE 6.9 mph - 0.00 in Snow Light Snow
12:21 PM 21.9 °F 15.7 °F 10.0 °F 60% 30.32 in 7.0 mi SSE 4.6 mph - 0.00 in   Overcast
12:52 PM 23.0 °F 13.1 °F 9.0 °F 55% 30.35 in 10.0 mi SSE 9.2 mph - 0.00 in   Overcast
1:02 PM 24.1 °F 14.4 °F 10.9 °F 57% 30.28 in 5.0 mi SE 9.2 mph - N/A   Haze
1:38 PM 24.1 °F 14.4 °F 12.9 °F 62% 30.28 in 3.0 mi ESE 9.2 mph - 0.00 in Snow Light Snow
1:41 PM 23.0 °F 13.1 °F 14.0 °F 68% 30.28 in 1.8 mi SE 9.2 mph - 0.00 in Snow Light Snow
1:52 PM 23.0 °F 13.9 °F 16.0 °F 74% 30.33 in 1.5 mi ESE 8.1 mph - 0.00 in Snow Light Snow
2:02 PM 23.0 °F 13.9 °F 16.0 °F 74% 30.26 in 2.5 mi East 8.1 mph - 0.00 in Snow Light Snow
2:12 PM 23.0 °F 13.1 °F 15.1 °F 72% 30.26 in 4.0 mi East 9.2 mph - 0.00 in Snow Light Snow
2:21 PM 23.0 °F 13.9 °F 15.1 °F 72% 30.26 in 6.0 mi East 8.1 mph - 0.00 in Snow Light Snow
2:44 PM 23.0 °F 12.4 °F 15.1 °F 72% 30.25 in 2.5 mi East 10.4 mph - 0.00 in Snow Light Snow
2:50 PM 23.0 °F 11.7 °F 15.8 °F 74% 30.24 in 2.5 mi ESE 11.5 mph - 0.00 in Snow Light Snow
2:52 PM 23.0 °F 12.4 °F 15.1 °F 72% 30.29 in 2.5 mi ESE 10.4 mph - 0.00 in Snow Light Snow
3:52 PM 21.9 °F 13.4 °F 17.1 °F 82% 30.31 in 2.0 mi East 6.9 mph - 0.01 in Snow Light Snow
3:59 PM 21.9 °F 12.5 °F 16.0 °F 78% 30.25 in 5.0 mi ESE 8.1 mph - 0.00 in Snow Light Snow
4:04 PM 21.9 °F 11.7 °F 17.1 °F 82% 30.24 in 2.0 mi ESE 9.2 mph - 0.00 in Snow Light Snow
4:18 PM 21.9 °F 12.5 °F 17.1 °F 82% 30.23 in 1.5 mi SE 8.1 mph - 0.00 in Snow Light Snow
4:52 PM 21.0 °F 11.4 °F 18.0 °F 88% 30.29 in 1.5 mi SE 8.1 mph - 0.01 in Snow Light Snow
4:54 PM 21.0 °F 10.6 °F 18.0 °F 88% 30.23 in 2.0 mi SE 9.2 mph - 0.00 in Snow Light Snow
5:15 PM 21.9 °F 13.4 °F 18.0 °F 85% 30.24 in 0.8 mi ESE 6.9 mph - 0.00 in Snow Light Snow
5:28 PM 21.0 °F 11.4 °F 18.0 °F 88% 30.25 in 1.0 mi ESE 8.1 mph - 0.01 in Snow Light Snow
5:32 PM 21.0 °F 11.4 °F 18.0 °F 88% 30.25 in 0.8 mi ESE 8.1 mph - 0.01 in Snow Light Snow
5:48 PM 21.2 °F 13.6 °F 17.6 °F 86% 30.26 in 0.8 mi SE 5.8 mph - 0.02 in Snow Light Snow
5:52 PM 21.0 °F 12.4 °F 18.0 °F 88% 30.31 in 0.8 mi ESE 6.9 mph - 0.02 in Snow Light Snow
5:58 PM 21.0 °F 13.4 °F 18.0 °F 88% 30.26 in 1.0 mi ESE 5.8 mph - 0.00 in Snow Light Snow
6:52 PM 19.9 °F 14.9 °F 18.0 °F 92% 30.33 in 1.0 mi East 3.5 mph - 0.02 in Snow Light Snow
7:35 PM 19.9 °F 13.4 °F 18.0 °F 92% 30.29 in 1.0 mi East 4.6 mph - 0.00 in Snow Light Snow
7:52 PM 19.9 °F 11.1 °F 17.1 °F 89% 30.34 in 1.0 mi ENE 6.9 mph - 0.01 in Snow Light Snow
8:41 PM 19.0 °F 8.2 °F 15.1 °F 85% 30.30 in 1.0 mi ENE 9.2 mph - 0.00 in Snow Light Snow
8:49 PM 17.6 °F 6.4 °F 14.0 °F 86% 30.30 in 3.0 mi ENE 9.2 mph - 0.00 in Snow Light Snow
8:52 PM 18.0 °F 7.7 °F 14.0 °F 84% 30.36 in 3.0 mi ENE 8.1 mph - 0.00 in Snow Light Snow
9:42 PM 18.0 °F 7.7 °F 14.0 °F 84% 30.33 in 2.5 mi NNE 8.1 mph - 0.00 in Snow Light Snow
9:52 PM 18.0 °F 7.7 °F 14.0 °F 84% 30.40 in 2.0 mi NNE 8.1 mph - 0.01 in Snow Light Snow
10:52 PM 17.1 °F 5.0 °F 12.9 °F 84% 30.42 in 1.8 mi NNE 10.4 mph - 0.00 in Snow Light Snow
11:04 PM 17.1 °F 6.6 °F 12.0 °F 81% 30.36 in 2.5 mi NE 8.1 mph - 0.01 in Snow Light Snow
11:36 PM 16.0 °F 3.6 °F 10.9 °F 81% 30.37 in 3.0 mi NNE 10.4 mph - 0.01 in Snow Light Snow
11:52 PM 16.0 °F 1.7 °F 10.9 °F 81% 30.44 in 3.0 mi North 13.8 mph - 0.01 in Snow Light Snow